User: anonymous   Login
Location: Unspecified
(0.0000°N, 0.0000°E)
Time: 02:12:23
(UTC+00:00)
Language:

Cosmos 1758 - Orbit

View from above orbital plane
View from above orbital plane
View from above satellite
View from above satellite

Ground track
Ground track

The orbit data is extracted from the following two-line orbital elements,

1 16791U 86046A   18017.55818347 -.00000087  00000-0 -82839-5 0  9998
2 16791  82.4700 183.1847 0017997  81.0496 279.2767 15.04611677717913
Epoch (UTC): 17 January 2018 13:23:47
Eccentricity: 0.0017997
inclination: 82.4700°
perigee height: 540 km
apogee height: 565 km
right ascension of ascending node: 183.1847°
argument of perigee: 81.0496°
revolutions per day: 15.04611677
mean anomaly at epoch: 279.2767°
orbit number at epoch: 71791

The dashed part of the orbit path shows where the satellite is in the earth's shadow,  

DLR